User: anonymous   Login
Location: Caltech
(34.1382°N, 118.1253°W)
Time: 03:55:11
(UTC-08:00)
Language:

Cosmos 1606 - Orbit

View from above orbital plane
View from above orbital plane
View from above satellite
View from above satellite

Ground track
Ground track

The orbit data is extracted from the following two-line orbital elements,

1 15369U 84111A   15063.18996603  .00006208  00000-0  35436-3 0  9996
2 15369 082.5267 223.4851 0018006 271.8666 088.0502 15.12430637653922
Epoch (UTC): 04 March 2015 04:33:33
Eccentricity: 0.0018006
inclination: 82.5267°
perigee height: 516 km
apogee height: 541 km
right ascension of ascending node: 223.4851°
argument of perigee: 271.8666°
revolutions per day: 15.12430637
mean anomaly at epoch: 88.0502°
orbit number at epoch: 65392

The dashed part of the orbit path shows where the satellite is in the earth's shadow,  

DLR